Flag for U.S.A. Weather past 2 weeks in Fall River, Massachusetts, U.S.A.

Now
48 °F

Fog.


Feels Like: 48 °F
Forecast: 53 / 74 °F
Wind: No wind

Location: New Bedford Regional Airport

Current Time: Aug 30, 2014 at 4:25:56 AM

Latest Report: Aug 30, 2014 at 3:53 AM


Visibility: 4 mi

Pressure: 30.28 "Hg

Humidity: 93%

Dew point: 46 °F

Location of Fall RiverLocation

Historic Weather in Fall River — Graph

°F

Fall River temperature yesterday

Maximum temperature yesterday: 74 °F (at 11:53 AM)
Minimum temperature yesterday: 53 °F (at 5:53 AM)
Average temperature yesterday: 63 °F

Past Weeks' High & Low Weather Summary

 TemperatureHumidityPressure
High86 °F (Aug 25, 1:53 PM)100% (Aug 20, 6:53 AM)30.29 "Hg (Aug 20, 6:53 AM)
Low48 °F (Aug 19, 5:53 AM)35% (Aug 28, 2:53 PM)29.76 "Hg (Aug 17, 3:53 PM)
Average67 °F74%29.99 "Hg
* Reported Aug 15 3:53 AM — Aug 30 2:53 AM, Fall River, Weather by CustomWeather, © 2014

Note: Actual official high and low records may vary slightly from our data, if they occured in-between our weather recording intervals... More about our weather records

Advertising

Fall River weather history for previous 24 hours

 ConditionsComfort  
Time TempWeatherWind HumidityBarometerVisibility
2:53 AM
Aug 30
50 °FClear.No wind96%30.29 "Hg10 mi
1:53 AM51 °FClear.No wind96%30.29 "Hg10 mi
12:53 AM51 °FClear.No wind92%30.28 "Hg10 mi
11:53 PM
Aug 29
53 °FClear.No wind93%30.27 "Hg10 mi
10:53 PM53 °FPassing clouds.No wind93%30.27 "Hg10 mi
9:53 PM55 °FClear.No wind93%30.26 "Hg10 mi
8:53 PM57 °FClear.No wind87%30.25 "Hg10 mi
7:53 PM63 °FSunny.3 mph68%30.23 "Hg10 mi
6:53 PM66 °FSunny.8 mph65%30.21 "Hg10 mi
5:53 PM70 °FSunny.9 mph55%30.19 "Hg10 mi
4:53 PM72 °FSunny.8 mph48%30.19 "Hg10 mi
2:53 PM73 °FScattered clouds.8 mph53%30.18 "Hg10 mi
1:53 PM72 °FScattered clouds.7 mph55%30.17 "Hg10 mi
12:53 PM74 °FPartly sunny.9 mph50%30.17 "Hg10 mi
11:53 AM74 °FScattered clouds.N/A50%30.17 "Hg10 mi
10:53 AM72 °FScattered clouds.7 mph52%30.16 "Hg10 mi
9:53 AM70 °FSunny.8 mph55%30.15 "Hg10 mi
8:53 AM66 °FSunny.5 mph63%30.13 "Hg10 mi
7:53 AM61 °FSunny.5 mph72%30.11 "Hg10 mi
6:53 AM55 °FClear.No wind83%30.09 "Hg10 mi
5:53 AM53 °FClear.No wind86%30.06 "Hg10 mi
4:53 AM54 °FClear.3 mph83%30.04 "Hg10 mi
Weather by CustomWeather, © 2014

See weather overviewHow to use our weather pages